Погода в Пяндже

Погода в Пяндже : погода сейчас, прогноз погоды и архив. Всё, что Вы хотите узнать о погоде в Пяндже!

Поиск расширенной информации на нашем сайте:

Другие новости

Новости СМИ2

Главная страница сайта

Новости сайта

03.07.2017

Напоминаем, что на нашем специализированном сайте Метеоцентр.Азия вы можете получить высокодетализированные автоматические прогнозы погоды по пунктам России, СНГ и мира в авиационном формате (включающие направление и скорость ветра, видимость, явления погоды, количество и форму облачности, нижнюю и верхнюю границу облачности).


Погода в Пяндже - сегодня

Время (UTC), дата Ветер
(°,м/с) 
Видим.   Явления Облачность Т
(°С)
Тd
(°С)
f(%) Тe
(°С)
Pmin
(гПа)
dP
(гПа)
Po
(мм)
O2
(г/м3)
Тmin Tmax R s Состояние
почвы
09 10.12.17 190 (Ю) 4000 м  мгла  ясно 
+9.6 +1.1 55 +11  1026.7  -2.9  737  286           
12 10.12.17 010 (С) 4000 м  мгла  ясно 1000 м 
+8.3 +3.4 71 +9  1025.2  -1.5  736  287           
15 10.12.17 100 (В) н/о  мгла  ясно 
+5.4 +1.4 75 +6  1025.3  -0.4  735  289    +10.5       
18 10.12.17 230 (ЮЗ) н/о  мгла  ясно 
+4.1 +0.4 77 +5  1025.6  0.1  736  291    +10.5       
21 10.12.17 140 (ЮВ) н/о  мгла  ясно 
+2.2 -1 79 +3  1026.3  0.4  736  294           
00 11.12.17 070 (В) н/о  мгла  ясно 
+0.9 -2 81 +2  1027.2  0.5  737  296           
03 11.12.17 260 (З) 20000 м    ясно 
-0.5 -2.9 84 1027.2  -0.2  736  297  -1         
06 11.12.17 310 (СЗ) 4000 м  мгла  3/0 верхняя 
[Ci fib]
+5.2 +1.4 76 +6  1027  0.8  737  290  -1         
09 11.12.17 190 (Ю) 4000 м  мгла  4/0 верхняя 
[Ci fib]
+7.6 -0.5 56 +9  1023  -3.5  734  287           
12 11.12.17 тихо ()   4000 м    5/0 верхняя 
[Ci fib]
+6.3 +0.1 64 +6  1022.1  -1  734  289           
15 11.12.17 050 (СВ) н/о    6/0 верхняя 
[Ci fib]
+4.1 -1.1 69 +5  1022.7  0.2  733  290    +9.7       
21 11.12.17 120 (ЮВ) н/о    10/0 верхняя 
[Ci fib]
+2.4 -0.9 79 +3  1023.4  734  292           
00 12.12.17 140 (ЮВ) н/о    9/0 средняя, верхняя 
[Ac trans|Ci fib]
+1.1 -1.5 83 +2  1024.3  0.7  735  295           
03 12.12.17 330 (СЗ) 4000 м  мгла  9/9 1000 м 
[Sc]
-0.6 -2.7 86 1026.2  1.5  735  296  -1.4         
06 12.12.17 170 (Ю) 4000 м  мгла  8/0 верхняя 
[Ci ing]
+4.2 -0.7 70 +5  1026.9  1.4  736  291  -1.4         
09 12.12.17 350 (С) 4000 м  мгла  5/0 верхняя 
[Ci fib]
+7.2 -0.7 57 +8  1026.1  -0.3  736  288           
12 12.12.17 040 (СВ) 4000 м  мгла  4/0 верхняя 
[Ci fib]
+6.3 +2.7 78 +7  1028.5  2.2  738  290           
15 12.12.17 110 (В) н/о    3/0 верхняя 
[Ci fib]
+2.5 -0.8 79 +3  1029.5  0.3  738  294    +8.1       
18 12.12.17 030 (СВ) н/о    ясно 
+0.5 -2.1 83 +1  1030.1  0.2  738  296    +8.1       
00 13.12.17 200 (Ю) н/о    ясно 
-1.4 -3.6 85 -1  1030.4  -0.3  739  300           
03 13.12.17 080 (В) 10 км    3/0 верхняя 
[Ci fib]
-2.4 -4.3 87 -2  1029.4  -1.2  737  299  -2.8         
06 13.12.17 230 (ЮЗ) 4000 м  дымка  4/0 верхняя 
[Ci fib]
+3 +0.6 84 +4  1028.7  0.3  738  293  -2.8         
09 13.12.17 020 (С) 10 км    6/0 верхняя 
[Ci fib]
+7.6 +0.9 62 +9  1026  -2  736  288           
12 13.12.17 320 (СЗ) 10 км    8/0 верхняя 
[Ci fib]
+7 +0.4 63 +8  1025.6  -0.4  736  289           
15 13.12.17 160 (Ю) н/о    ясно 
+2.1 -1.9 75 +3  1026  -0.3  736  294    +8       
Время (UTC), дата Ветер
(°,м/с) 
Видим.   Явления Облачность Т
(°С)
Тd
(°С)
f(%) Тe
(°С)
Pmin
(гПа)
dP
(гПа)
Po
(мм)
O2
(г/м3)
Тmin Tmax R s Состояние
почвы

Для получения пояснительной информации подведите курсор к названию столбца.

ПОГОДА в Пяндже - архив

Всё, что Вы хотите узнать о погоде в Пяндже - удобно и подробно!

Выберите нужную дату (начиная с 1 января 2015* года) и нажмите кнопку "Найти".
Будут отображены архивные сводки погоды по пункту Пяндж, начиная с указанной даты.


Отображать данные в формате CSV (для использования в таблицах Excel)


Внимание! Наш архив погоды предназначен исключительно для личного некоммерческого использования в познавательных целях. Если Вам необходимы официальные справки о состоянии погоды (для производственных, юридических, коммерческих и т.п. целей), обращайтесь в органы Росгидромета.

*Примечание: данная дата относится к архиву по метеостанциям СССР (Россия, СНГ, Балтия).
Архив по метеостанциям Зарубежной Европы и Азии (кроме Китая) хранится 10 дней, по другим регионам земного шара (Китай, Африка, Америка, Австралия, Океания) - 1 день.

Пяндж - район местоположения метеостанции


Название, широта, долгота, высота метеостанции:
Пяндж 37.2°ш. 69.1°д. 363 м над ур. моря [Таджикистан]

Дополнительная информация

В oтличие oт бoльшинства пoгoдных сайтoв мы публикуем пoдрoбную метеoинфoрмацию в детальнoм прoфессиoнальнoм фoрмате.

Характеристики температуры и влажнoсти вoздуха измеряются на высoте 2 м в тени вдали oт зданий и деревьев.
Скoрoсть ветра измеряется на высoте 10 м (на урoвне рoста челoвека скoрoсть ветра ниже в 1.5-2 раза). Если метеoстанция нахoдится в гoрoде или в лесу, тo скoрoсть ветра занижена на 2-4 м/с пo сравнению с oткрытым местoм. Скoрoсть ветра над акватoриями крупных рек и oзёр, а также на вершинах хoлмoв на 2-5 м/с выше, чем в oбычных услoвиях.
Атмoсфернoе давление в разных тoчках местнoсти мoжет значительнo oтличаться oт давления на метеoстанции, в зависимoсти oт услoвий рельефа (при пoдъёме на 10 м давление пoнижается примернo на 1 мм рт.ст.).